Time,TemperatureF,DewpointF,PressureIn,WindDirection,WindDirectionDegrees,WindSpeedMPH,WindSpeedGustMPH,Humidity,HourlyPrecipIn,Conditions,Clouds,dailyrainin,SoftwareType,DateUTC
2013-06-18 00:01:00,69.6,52.3,29.94,NNW,338,0.0,0.0,54,0.00,,---,0.00,VWS V14.00,2013-06-18 04:01:00,
2013-06-18 00:06:00,69.4,52.1,29.91,NNW,338,0.0,0.0,54,0.00,,---,0.00,VWS V14.00,2013-06-18 04:06:00,
2013-06-18 00:11:00,69.3,52.4,29.91,NNW,338,0.0,0.0,55,0.00,,---,0.00,VWS V14.00,2013-06-18 04:11:00,
2013-06-18 00:16:00,69.3,52.4,29.91,NNW,338,0.0,0.0,55,0.00,,---,0.00,VWS V14.00,2013-06-18 04:16:00,
2013-06-18 00:21:00,69.1,52.7,29.94,NNW,338,0.0,0.0,56,0.00,,---,0.00,VWS V14.00,2013-06-18 04:21:00,
2013-06-18 00:26:00,69.1,52.7,29.94,NNW,338,0.0,0.0,56,0.00,,---,0.00,VWS V14.00,2013-06-18 04:26:00,
2013-06-18 00:31:00,68.9,52.6,29.94,NNW,338,0.0,0.0,56,0.00,,---,0.00,VWS V14.00,2013-06-18 04:31:00,
2013-06-18 00:36:00,68.7,52.4,29.91,NNW,338,0.0,0.0,56,0.00,,---,0.00,VWS V14.00,2013-06-18 04:36:00,
2013-06-18 00:41:00,68.7,52.4,29.91,NNW,338,0.0,0.0,56,0.00,,---,0.00,VWS V14.00,2013-06-18 04:41:00,
2013-06-18 00:46:00,68.5,52.2,29.91,NNW,338,0.0,0.0,56,0.00,,---,0.00,VWS V14.00,2013-06-18 04:46:00,
2013-06-18 00:51:00,68.5,52.7,29.91,NNW,338,0.0,0.0,57,0.00,,---,0.00,VWS V14.00,2013-06-18 04:51:00,
2013-06-18 00:56:00,68.4,52.5,29.91,NNW,338,0.0,0.0,57,0.00,,---,0.00,VWS V14.00,2013-06-18 04:56:00,
2013-06-18 01:01:00,68.2,52.9,29.91,NNW,338,0.0,0.0,58,0.00,,---,0.00,VWS V14.00,2013-06-18 05:01:00,
2013-06-18 01:06:00,68.2,52.9,29.91,NNW,338,0.0,0.0,58,0.00,,---,0.00,VWS V14.00,2013-06-18 05:06:00,
2013-06-18 01:11:00,68.0,52.7,29.91,NNW,338,0.0,0.0,58,0.00,,---,0.00,VWS V14.00,2013-06-18 05:11:00,
2013-06-18 01:16:00,67.8,53.0,29.91,NNW,338,0.0,0.0,59,0.00,,---,0.00,VWS V14.00,2013-06-18 05:16:00,
2013-06-18 01:21:00,67.8,53.0,29.91,NNW,338,0.0,0.0,59,0.00,,---,0.00,VWS V14.00,2013-06-18 05:21:00,
2013-06-18 01:26:00,67.6,53.3,29.91,NNE,22,0.0,0.0,60,0.00,,---,0.00,VWS V14.00,2013-06-18 05:26:00,
2013-06-18 01:31:00,67.6,53.3,29.91,NNE,22,0.0,0.0,60,0.00,,---,0.00,VWS V14.00,2013-06-18 05:31:00,
2013-06-18 01:36:00,67.5,53.1,29.91,NNE,22,0.0,0.0,60,0.00,,---,0.00,VWS V14.00,2013-06-18 05:36:00,
2013-06-18 01:41:00,67.3,52.9,29.91,NNE,22,0.0,0.0,60,0.00,,---,0.00,VWS V14.00,2013-06-18 05:41:00,
2013-06-18 01:46:00,67.3,52.9,29.91,NNE,22,0.0,0.0,60,0.00,,---,0.00,VWS V14.00,2013-06-18 05:46:00,
2013-06-18 01:51:00,67.1,53.2,29.91,NNE,22,0.0,0.0,61,0.00,,---,0.00,VWS V14.00,2013-06-18 05:51:00,
2013-06-18 01:56:00,67.1,53.2,29.91,North,0,0.0,0.0,61,0.00,,---,0.00,VWS V14.00,2013-06-18 05:56:00,
2013-06-18 02:01:00,66.9,53.0,29.91,North,0,0.0,0.0,61,0.00,,---,0.00,VWS V14.00,2013-06-18 06:01:00,
2013-06-18 02:06:00,66.7,52.9,29.91,North,0,0.0,0.0,61,0.00,,---,0.00,VWS V14.00,2013-06-18 06:06:00,
2013-06-18 02:11:00,66.7,53.3,29.91,North,0,0.0,0.0,62,0.00,,---,0.00,VWS V14.00,2013-06-18 06:11:00,
2013-06-18 02:16:00,66.6,53.2,29.91,North,0,0.0,0.0,62,0.00,,---,0.00,VWS V14.00,2013-06-18 06:16:00,
2013-06-18 02:21:00,66.6,53.2,29.91,North,0,0.0,0.0,62,0.00,,---,0.00,VWS V14.00,2013-06-18 06:21:00,
2013-06-18 02:26:00,66.4,53.0,29.91,North,0,0.0,0.0,62,0.00,,---,0.00,VWS V14.00,2013-06-18 06:26:00,
2013-06-18 02:31:00,66.2,53.2,29.91,North,0,0.0,0.0,63,0.00,,---,0.00,VWS V14.00,2013-06-18 06:31:00,
2013-06-18 02:36:00,66.2,53.2,29.91,North,0,0.0,0.0,63,0.00,,---,0.00,VWS V14.00,2013-06-18 06:36:00,
2013-06-18 02:41:00,66.0,53.5,29.88,North,0,0.0,0.0,64,0.00,,---,0.00,VWS V14.00,2013-06-18 06:41:00,
2013-06-18 02:46:00,66.0,53.5,29.88,North,0,0.0,0.0,64,0.00,,---,0.00,VWS V14.00,2013-06-18 06:46:00,
2013-06-18 02:51:00,66.0,53.5,29.88,North,0,0.0,0.0,64,0.00,,---,0.00,VWS V14.00,2013-06-18 06:51:00,
2013-06-18 02:56:00,65.8,53.3,29.91,North,0,0.0,0.0,64,0.00,,---,0.00,VWS V14.00,2013-06-18 06:56:00,
2013-06-18 03:01:00,65.8,53.3,29.91,North,0,0.0,0.0,64,0.00,,---,0.00,VWS V14.00,2013-06-18 07:01:00,
2013-06-18 03:06:00,65.7,53.6,29.91,North,0,0.0,0.0,65,0.00,,---,0.00,VWS V14.00,2013-06-18 07:06:00,
2013-06-18 03:11:00,65.5,53.4,29.91,North,0,0.0,0.0,65,0.00,,---,0.00,VWS V14.00,2013-06-18 07:11:00,
2013-06-18 03:16:00,65.5,53.4,29.91,North,0,0.0,0.0,65,0.00,,---,0.00,VWS V14.00,2013-06-18 07:16:00,
2013-06-18 03:21:00,65.3,53.7,29.91,North,0,0.0,0.0,66,0.00,,---,0.00,VWS V14.00,2013-06-18 07:21:00,
2013-06-18 03:26:00,65.3,53.7,29.88,North,0,0.0,0.0,66,0.00,,---,0.00,VWS V14.00,2013-06-18 07:26:00,
2013-06-18 03:31:00,65.1,53.5,29.88,North,0,0.0,0.0,66,0.00,,---,0.00,VWS V14.00,2013-06-18 07:31:00,
2013-06-18 03:36:00,65.1,53.5,29.88,North,0,0.0,0.0,66,0.00,,---,0.00,VWS V14.00,2013-06-18 07:36:00,
2013-06-18 03:41:00,64.9,53.7,29.91,North,0,0.0,0.0,67,0.00,,---,0.50,VWS V14.00,2013-06-18 07:41:00,
2013-06-18 03:46:00,64.9,53.7,29.91,North,0,0.0,0.0,67,0.00,,---,0.00,VWS V14.00,2013-06-18 07:46:00,
2013-06-18 03:51:00,64.8,53.6,29.91,North,0,0.0,0.0,67,0.00,,---,0.00,VWS V14.00,2013-06-18 07:51:00,
2013-06-18 03:56:00,64.6,53.4,29.91,North,0,0.0,0.0,67,0.00,,---,0.00,VWS V14.00,2013-06-18 07:56:00,
2013-06-18 04:01:00,64.6,53.8,29.91,North,0,0.0,0.0,68,0.00,,---,0.00,VWS V14.00,2013-06-18 08:01:00,
2013-06-18 04:06:00,64.4,53.6,29.91,North,0,0.0,0.0,68,0.00,,---,0.00,VWS V14.00,2013-06-18 08:06:00,
2013-06-18 04:11:00,64.4,53.6,29.91,North,0,0.0,0.0,68,0.00,,---,0.00,VWS V14.00,2013-06-18 08:11:00,
2013-06-18 04:16:00,64.2,53.8,29.91,North,0,0.0,0.0,69,0.00,,---,0.00,VWS V14.00,2013-06-18 08:16:00,
2013-06-18 04:21:00,64.2,53.8,29.91,North,0,0.0,0.0,69,0.00,,---,0.00,VWS V14.00,2013-06-18 08:21:00,
2013-06-18 04:26:00,64.2,54.2,29.88,North,0,0.0,0.0,70,0.00,,---,0.00,VWS V14.00,2013-06-18 08:26:00,
2013-06-18 04:31:00,64.2,54.2,29.88,North,0,0.0,0.0,70,0.00,,---,0.00,VWS V14.00,2013-06-18 08:31:00,
2013-06-18 04:36:00,64.2,54.2,29.88,North,0,0.0,0.0,70,0.00,,---,0.00,VWS V14.00,2013-06-18 08:36:00,
2013-06-18 04:41:00,64.0,54.1,29.88,North,0,0.0,0.0,70,0.00,,---,0.00,VWS V14.00,2013-06-18 08:41:00,
2013-06-18 04:46:00,63.9,53.9,29.88,North,0,0.0,0.0,70,0.00,,---,0.00,VWS V14.00,2013-06-18 08:46:00,
2013-06-18 04:51:00,63.9,53.9,29.88,North,0,0.0,0.0,70,0.00,,---,0.00,VWS V14.00,2013-06-18 08:51:00,
2013-06-18 04:56:00,63.9,54.3,29.88,North,0,0.0,0.0,71,0.00,,---,0.00,VWS V14.00,2013-06-18 08:56:00,
2013-06-18 05:01:00,63.7,54.1,29.88,North,0,0.0,0.0,71,0.00,,---,0.00,VWS V14.00,2013-06-18 09:01:00,
2013-06-18 05:06:00,63.7,54.1,29.88,North,0,0.0,0.0,71,0.00,,---,0.00,VWS V14.00,2013-06-18 09:06:00,
2013-06-18 05:11:00,63.7,54.1,29.91,North,0,0.0,0.0,71,0.00,,---,0.00,VWS V14.00,2013-06-18 09:11:00,
2013-06-18 05:16:00,63.7,54.1,29.91,North,0,0.0,0.0,71,0.00,,---,0.00,VWS V14.00,2013-06-18 09:16:00,
2013-06-18 05:21:00,63.5,53.9,29.91,North,0,0.0,0.0,71,0.00,,---,0.00,VWS V14.00,2013-06-18 09:21:00,
2013-06-18 05:26:00,63.5,54.3,29.91,North,0,0.0,0.0,72,0.00,,---,0.00,VWS V14.00,2013-06-18 09:26:00,
2013-06-18 05:31:00,63.5,54.3,29.91,North,0,0.0,0.0,72,0.00,,---,0.00,VWS V14.00,2013-06-18 09:31:00,
2013-06-18 05:36:00,63.5,54.3,29.91,North,0,0.0,0.0,72,0.00,,---,0.00,VWS V14.00,2013-06-18 09:36:00,
2013-06-18 05:41:00,63.5,54.3,29.91,ENE,68,0.0,0.0,72,0.00,,---,0.00,VWS V14.00,2013-06-18 09:41:00,
2013-06-18 05:46:00,63.5,54.3,29.91,ENE,68,0.0,0.0,72,0.00,,---,0.00,VWS V14.00,2013-06-18 09:46:00,
2013-06-18 05:51:00,63.5,54.3,29.91,ENE,68,0.0,0.0,72,0.00,,---,0.00,VWS V14.00,2013-06-18 09:51:00,
2013-06-18 05:56:00,63.5,54.7,29.91,ENE,68,0.0,0.0,73,0.00,,---,0.00,VWS V14.00,2013-06-18 09:56:00,
2013-06-18 06:01:00,63.5,54.7,29.91,ENE,68,0.0,0.0,73,0.00,,---,0.00,VWS V14.00,2013-06-18 10:01:00,
2013-06-18 06:06:00,63.7,54.9,29.91,ENE,68,0.0,0.0,73,0.00,,---,0.00,VWS V14.00,2013-06-18 10:06:00,
2013-06-18 06:11:00,63.7,54.9,29.94,ENE,68,0.0,0.0,73,0.00,,---,0.00,VWS V14.00,2013-06-18 10:11:00,
2013-06-18 06:16:00,63.9,55.0,29.94,ENE,68,0.0,0.0,73,0.00,,---,0.00,VWS V14.00,2013-06-18 10:16:00,
2013-06-18 06:21:00,63.9,55.0,29.94,NW,315,0.0,0.0,73,0.00,,---,0.00,VWS V14.00,2013-06-18 10:21:00,
2013-06-18 06:26:00,64.0,55.6,29.94,NW,315,0.0,0.0,74,0.00,,---,0.00,VWS V14.00,2013-06-18 10:26:00,
2013-06-18 06:31:00,64.0,55.6,29.94,NW,315,0.0,0.0,74,0.00,,---,0.00,VWS V14.00,2013-06-18 10:31:00,
2013-06-18 06:36:00,64.2,55.8,29.94,NW,315,0.0,0.0,74,0.00,,---,0.00,VWS V14.00,2013-06-18 10:36:00,
2013-06-18 06:41:00,64.4,55.9,29.94,NW,315,0.0,1.1,74,0.00,,---,0.00,VWS V14.00,2013-06-18 10:41:00,
2013-06-18 06:46:00,64.6,56.1,29.94,NNE,22,0.0,0.9,74,0.00,,---,0.00,VWS V14.00,2013-06-18 10:46:00,
2013-06-18 06:51:00,64.9,56.8,29.94,NNW,338,0.0,0.0,75,0.00,,---,0.00,VWS V14.00,2013-06-18 10:51:00,
2013-06-18 06:56:00,65.3,57.2,29.94,NNW,338,0.0,0.0,75,0.00,,---,0.00,VWS V14.00,2013-06-18 10:56:00,
2013-06-18 07:01:00,65.7,57.2,29.94,North,0,1.6,1.6,74,0.00,,---,0.00,VWS V14.00,2013-06-18 11:01:00,
2013-06-18 07:06:00,66.0,57.5,29.94,NNE,22,2.0,2.0,74,0.00,,---,0.00,VWS V14.00,2013-06-18 11:06:00,
2013-06-18 07:11:00,66.2,57.3,29.94,North,0,1.3,1.6,73,0.00,,---,0.00,VWS V14.00,2013-06-18 11:11:00,
2013-06-18 07:16:00,66.4,57.1,29.94,North,0,0.0,0.9,72,0.00,,---,0.00,VWS V14.00,2013-06-18 11:16:00,
2013-06-18 07:21:00,66.7,57.4,29.94,NE,45,0.0,0.0,72,0.00,,---,0.00,VWS V14.00,2013-06-18 11:21:00,
2013-06-18 07:26:00,67.1,57.4,29.94,NNE,22,2.2,2.2,71,0.00,,---,0.00,VWS V14.00,2013-06-18 11:26:00,
2013-06-18 07:31:00,67.3,57.6,29.94,NNE,22,1.6,1.6,71,0.00,,---,0.00,VWS V14.00,2013-06-18 11:31:00,
2013-06-18 07:36:00,67.3,57.2,29.94,WSW,248,0.0,0.0,70,0.00,,---,0.00,VWS V14.00,2013-06-18 11:36:00,
2013-06-18 07:41:00,67.5,57.3,29.94,NNE,22,1.1,1.1,70,0.00,,---,0.00,VWS V14.00,2013-06-18 11:41:00,
2013-06-18 07:46:00,67.6,57.1,29.94,NNW,338,0.0,0.9,69,0.00,,---,0.00,VWS V14.00,2013-06-18 11:46:00,
2013-06-18 07:51:00,67.8,57.3,29.94,NE,45,0.9,0.9,69,0.00,,---,0.00,VWS V14.00,2013-06-18 11:51:00,
2013-06-18 07:56:00,68.2,57.6,29.94,NE,45,0.0,0.0,69,0.00,,---,0.00,VWS V14.00,2013-06-18 11:56:00,
2013-06-18 08:01:00,68.7,57.7,29.94,ENE,68,1.3,2.2,68,0.00,,---,0.00,VWS V14.00,2013-06-18 12:01:00,
2013-06-18 08:06:00,69.3,58.3,29.94,ENE,68,2.5,2.5,68,0.00,,---,0.00,VWS V14.00,2013-06-18 12:06:00,
2013-06-18 08:11:00,69.8,57.9,29.94,NNE,22,2.0,2.0,66,0.00,,---,0.00,VWS V14.00,2013-06-18 12:11:00,
2013-06-18 08:16:00,70.0,58.1,29.94,NE,45,2.2,2.2,66,0.00,,---,0.00,VWS V14.00,2013-06-18 12:16:00,
2013-06-18 08:21:00,70.3,58.0,29.94,NNW,338,1.1,1.6,65,0.00,,---,0.00,VWS V14.00,2013-06-18 12:21:00,
2013-06-18 08:26:00,70.7,57.9,29.94,North,0,2.2,2.5,64,0.00,,---,0.00,VWS V14.00,2013-06-18 12:26:00,
2013-06-18 08:31:00,71.1,58.3,29.94,NE,45,3.6,3.6,64,0.00,,---,0.00,VWS V14.00,2013-06-18 12:31:00,
2013-06-18 08:36:00,71.4,58.2,29.94,NE,45,2.7,2.7,63,0.00,,---,0.00,VWS V14.00,2013-06-18 12:36:00,
2013-06-18 08:41:00,71.8,57.6,29.94,ENE,68,1.1,1.6,61,0.00,,---,0.00,VWS V14.00,2013-06-18 12:41:00,
2013-06-18 08:46:00,72.1,58.0,29.94,ENE,68,2.5,2.9,61,0.00,,---,0.00,VWS V14.00,2013-06-18 12:46:00,
2013-06-18 08:51:00,72.3,57.7,29.94,ENE,68,0.9,2.2,60,0.00,,---,0.00,VWS V14.00,2013-06-18 12:51:00,
2013-06-18 08:56:00,72.7,58.0,29.94,East,90,2.0,2.0,60,0.00,,---,0.00,VWS V14.00,2013-06-18 12:56:00,
2013-06-18 09:01:00,72.9,57.7,29.94,NNE,22,1.6,2.0,59,0.00,,---,0.00,VWS V14.00,2013-06-18 13:01:00,
2013-06-18 09:06:00,73.2,57.6,29.94,NNE,22,1.6,1.6,58,0.00,,---,0.00,VWS V14.00,2013-06-18 13:06:00,
2013-06-18 09:11:00,73.6,57.4,29.94,NNE,22,1.6,1.6,57,0.00,,---,0.00,VWS V14.00,2013-06-18 13:11:00,
2013-06-18 09:16:00,73.8,57.6,29.94,ENE,68,0.9,0.9,57,0.00,,---,0.00,VWS V14.00,2013-06-18 13:16:00,
2013-06-18 09:21:00,74.1,57.9,29.94,NNW,338,1.6,1.6,57,0.00,,---,0.00,VWS V14.00,2013-06-18 13:21:00,
2013-06-18 09:26:00,74.1,57.4,29.94,NNE,22,1.1,1.6,56,0.00,,---,0.00,VWS V14.00,2013-06-18 13:26:00,
2013-06-18 09:31:00,74.3,57.6,29.94,NNW,338,3.1,3.1,56,0.00,,---,0.00,VWS V14.00,2013-06-18 13:31:00,
2013-06-18 09:36:00,74.5,57.8,29.94,NE,45,4.0,4.0,56,0.00,,---,0.00,VWS V14.00,2013-06-18 13:36:00,
2013-06-18 09:41:00,74.7,57.4,29.94,NE,45,2.5,2.5,55,0.00,,---,0.00,VWS V14.00,2013-06-18 13:41:00,
2013-06-18 09:46:00,74.8,57.6,29.94,ENE,68,2.5,2.5,55,0.00,,---,0.00,VWS V14.00,2013-06-18 13:46:00,
2013-06-18 09:51:00,75.0,57.3,29.94,NE,45,3.8,3.8,54,0.00,,---,0.00,VWS V14.00,2013-06-18 13:51:00,
2013-06-18 09:56:00,75.2,57.9,29.94,WNW,292,0.0,0.0,55,0.00,,---,0.00,VWS V14.00,2013-06-18 13:56:00,
2013-06-18 10:01:00,75.6,57.8,29.94,ENE,68,2.0,2.0,54,0.00,,---,0.00,VWS V14.00,2013-06-18 14:01:00,
2013-06-18 10:06:00,75.7,57.9,29.94,ENE,68,2.0,2.0,54,0.00,,---,0.00,VWS V14.00,2013-06-18 14:06:00,
2013-06-18 10:11:00,76.1,57.8,29.94,ESE,112,1.1,1.1,53,0.00,,---,0.00,VWS V14.00,2013-06-18 14:11:00,
2013-06-18 10:16:00,76.5,58.1,29.94,ENE,68,3.4,3.4,53,0.00,,---,0.00,VWS V14.00,2013-06-18 14:16:00,
2013-06-18 10:21:00,76.6,57.7,29.94,NE,45,3.1,3.1,52,0.00,,---,0.00,VWS V14.00,2013-06-18 14:21:00,
2013-06-18 10:26:00,76.8,57.9,29.94,East,90,1.3,1.6,52,0.00,,---,0.00,VWS V14.00,2013-06-18 14:26:00,
2013-06-18 10:31:00,77.2,57.7,29.94,NE,45,3.4,4.0,51,0.00,,---,0.00,VWS V14.00,2013-06-18 14:31:00,
2013-06-18 10:36:00,77.4,57.3,29.94,NNE,22,3.8,3.8,50,0.00,,---,0.00,VWS V14.00,2013-06-18 14:36:00,
2013-06-18 10:41:00,77.5,57.5,29.94,NNE,22,4.0,4.0,50,0.00,,---,0.00,VWS V14.00,2013-06-18 14:41:00,
2013-06-18 10:46:00,77.9,57.8,29.94,NNW,338,1.3,1.6,50,0.00,,---,0.00,VWS V14.00,2013-06-18 14:46:00,
2013-06-18 10:51:00,78.3,58.1,29.94,NE,45,2.5,4.3,50,0.00,,---,0.00,VWS V14.00,2013-06-18 14:51:00,
2013-06-18 10:56:00,78.4,57.7,29.91,ENE,68,1.6,2.5,49,0.00,,---,0.00,VWS V14.00,2013-06-18 14:56:00,
2013-06-18 11:01:00,78.8,58.0,29.91,NE,45,2.7,2.7,49,0.00,,---,0.00,VWS V14.00,2013-06-18 15:01:00,
2013-06-18 11:06:00,79.0,57.6,29.91,North,0,2.9,3.6,48,0.00,,---,0.00,VWS V14.00,2013-06-18 15:06:00,
2013-06-18 11:11:00,79.0,57.0,29.91,SSE,158,1.3,1.3,47,0.00,,---,0.00,VWS V14.00,2013-06-18 15:11:00,
2013-06-18 11:16:00,79.2,57.2,29.91,East,90,2.0,2.0,47,0.00,,---,0.00,VWS V14.00,2013-06-18 15:16:00,
2013-06-18 11:21:00,79.3,56.8,29.91,ENE,68,2.2,2.2,46,0.00,,---,0.00,VWS V14.00,2013-06-18 15:21:00,
2013-06-18 11:26:00,79.3,56.2,29.88,SSW,202,0.9,0.9,45,0.00,,---,0.00,VWS V14.00,2013-06-18 15:26:00,
2013-06-18 11:31:00,79.5,57.0,29.88,North,0,1.3,1.3,46,0.00,,---,0.00,VWS V14.00,2013-06-18 15:31:00,
2013-06-18 11:36:00,79.7,57.1,29.88,NE,45,1.1,2.0,46,0.00,,---,0.00,VWS V14.00,2013-06-18 15:36:00,
2013-06-18 11:41:00,79.7,56.5,29.91,ENE,68,1.6,1.6,45,0.00,,---,0.00,VWS V14.00,2013-06-18 15:41:00,
2013-06-18 11:46:00,79.9,56.0,29.91,NE,45,1.6,1.6,44,0.00,,---,0.00,VWS V14.00,2013-06-18 15:46:00,
2013-06-18 11:51:00,80.2,56.4,29.91,NE,45,1.6,1.6,44,0.00,,---,0.00,VWS V14.00,2013-06-18 15:51:00,
2013-06-18 11:56:00,80.4,56.5,29.91,North,0,1.1,2.0,44,0.00,,---,0.00,VWS V14.00,2013-06-18 15:56:00,
2013-06-18 12:01:00,80.2,56.4,29.91,North,0,1.1,1.1,44,0.00,,---,0.00,VWS V14.00,2013-06-18 16:01:00,
2013-06-18 12:06:00,80.2,56.4,29.91,ENE,68,0.9,0.9,44,0.00,,---,0.00,VWS V14.00,2013-06-18 16:06:00,
2013-06-18 12:11:00,80.4,55.9,29.91,ENE,68,0.0,0.0,43,0.00,,---,0.00,VWS V14.00,2013-06-18 16:11:00,
2013-06-18 12:16:00,80.8,55.6,29.91,ENE,68,0.0,0.0,42,0.00,,---,0.00,VWS V14.00,2013-06-18 16:16:00,
2013-06-18 12:21:00,81.0,56.4,29.91,ESE,112,2.5,2.5,43,0.00,,---,0.00,VWS V14.00,2013-06-18 16:21:00,
2013-06-18 12:26:00,81.1,55.9,29.91,NNE,22,1.1,2.7,42,0.00,,---,0.00,VWS V14.00,2013-06-18 16:26:00,
2013-06-18 12:31:00,81.1,55.2,29.91,NE,45,0.9,0.9,41,0.00,,---,0.00,VWS V14.00,2013-06-18 16:31:00,
2013-06-18 12:36:00,81.1,55.2,29.91,South,180,0.0,0.0,41,0.00,,---,0.00,VWS V14.00,2013-06-18 16:36:00,
2013-06-18 12:41:00,81.3,55.4,29.91,South,180,0.0,0.0,41,0.00,,---,0.00,VWS V14.00,2013-06-18 16:41:00,
2013-06-18 12:46:00,81.1,54.5,29.91,ENE,68,2.7,3.1,40,0.00,,---,0.00,VWS V14.00,2013-06-18 16:46:00,
2013-06-18 12:51:00,81.1,54.5,29.91,SW,225,0.0,0.9,40,0.00,,---,0.00,VWS V14.00,2013-06-18 16:51:00,
2013-06-18 12:56:00,81.1,54.5,29.88,NNE,22,1.3,2.9,40,0.00,,---,0.00,VWS V14.00,2013-06-18 16:56:00,
2013-06-18 13:01:00,81.1,54.5,29.88,NE,45,1.3,2.0,40,0.00,,---,0.00,VWS V14.00,2013-06-18 17:01:00,
2013-06-18 13:06:00,81.1,54.5,29.88,NNE,22,0.9,1.1,40,0.00,,---,0.00,VWS V14.00,2013-06-18 17:06:00,
2013-06-18 13:11:00,81.1,54.5,29.85,NE,45,1.1,1.1,40,0.00,,---,0.00,VWS V14.00,2013-06-18 17:11:00,
2013-06-18 13:16:00,81.1,55.2,29.85,SSE,158,2.0,2.0,41,0.00,,---,0.00,VWS V14.00,2013-06-18 17:16:00,
2013-06-18 13:21:00,81.3,55.4,29.85,North,0,1.3,1.3,41,0.00,,---,0.00,VWS V14.00,2013-06-18 17:21:00,
2013-06-18 13:26:00,81.3,55.4,29.85,NE,45,2.0,2.2,41,0.00,,---,0.00,VWS V14.00,2013-06-18 17:26:00,
2013-06-18 13:31:00,81.5,55.5,29.85,North,0,1.1,1.3,41,0.00,,---,0.00,VWS V14.00,2013-06-18 17:31:00,
2013-06-18 13:36:00,81.5,55.5,29.85,NE,45,2.2,2.2,41,0.00,,---,0.00,VWS V14.00,2013-06-18 17:36:00,
2013-06-18 13:41:00,81.1,55.2,29.85,NE,45,0.9,1.1,41,0.00,,---,0.00,VWS V14.00,2013-06-18 17:41:00,
2013-06-18 13:46:00,80.8,54.9,29.85,NNE,22,0.0,0.0,41,0.00,,---,0.00,VWS V14.00,2013-06-18 17:46:00,
2013-06-18 13:51:00,80.4,54.6,29.85,NNE,22,1.1,1.3,41,0.00,,---,0.00,VWS V14.00,2013-06-18 17:51:00,
2013-06-18 13:56:00,80.1,54.9,29.85,East,90,0.0,1.1,42,0.00,,---,0.00,VWS V14.00,2013-06-18 17:56:00,
2013-06-18 14:01:00,79.3,54.9,29.85,SSE,158,3.4,7.2,43,0.00,,---,0.00,VWS V14.00,2013-06-18 18:01:00,
2013-06-18 14:06:00,77.0,52.2,29.85,South,180,3.1,3.6,42,0.00,,---,0.00,VWS V14.00,2013-06-18 18:06:00,
2013-06-18 14:11:00,74.3,49.8,29.88,SE,135,1.6,2.0,42,0.00,,---,0.00,VWS V14.00,2013-06-18 18:11:00,
2013-06-18 14:16:00,72.3,49.2,29.88,East,90,6.5,6.5,44,0.00,,---,0.00,VWS V14.00,2013-06-18 18:16:00,
2013-06-18 14:21:00,71.2,49.4,29.88,ESE,112,2.9,5.4,46,0.00,,---,0.00,VWS V14.00,2013-06-18 18:21:00,
2013-06-18 14:26:00,70.3,48.6,29.85,East,90,2.9,2.9,46,0.00,,---,0.00,VWS V14.00,2013-06-18 18:26:00,
2013-06-18 14:31:00,69.8,49.2,29.85,East,90,1.1,2.5,48,0.00,,---,0.00,VWS V14.00,2013-06-18 18:31:00,
2013-06-18 14:36:00,69.3,49.8,29.85,East,90,0.0,1.1,50,0.05,,---,0.05,VWS V14.00,2013-06-18 18:36:00,
2013-06-18 14:41:00,68.4,50.6,29.85,ENE,68,1.1,1.1,53,0.09,,---,0.09,VWS V14.00,2013-06-18 18:41:00,
2013-06-18 14:46:00,67.6,51.4,29.85,NNW,338,1.1,2.0,56,0.17,,---,0.17,VWS V14.00,2013-06-18 18:46:00,
2013-06-18 14:51:00,67.1,51.4,29.85,NNW,338,0.9,2.0,57,0.25,,---,0.25,VWS V14.00,2013-06-18 18:51:00,
2013-06-18 14:56:00,66.6,52.3,29.82,NNW,338,1.6,2.2,60,0.29,,---,0.29,VWS V14.00,2013-06-18 18:56:00,
2013-06-18 15:01:00,66.4,53.0,29.82,NNW,338,1.3,1.3,62,0.29,,---,0.29,VWS V14.00,2013-06-18 19:01:00,
2013-06-18 15:06:00,66.0,53.1,29.82,NNW,338,1.1,1.1,63,0.34,,---,0.34,VWS V14.00,2013-06-18 19:06:00,
2013-06-18 15:11:00,65.8,53.8,29.85,NNW,338,0.0,0.0,65,0.34,,---,0.34,VWS V14.00,2013-06-18 19:11:00,
2013-06-18 15:16:00,65.8,54.2,29.85,NNW,338,1.6,1.6,66,0.34,,---,0.34,VWS V14.00,2013-06-18 19:16:00,
2013-06-18 15:21:00,65.8,54.6,29.85,NNW,338,1.3,1.6,67,0.38,,---,0.38,VWS V14.00,2013-06-18 19:21:00,
2013-06-18 15:26:00,65.7,54.8,29.85,NNW,338,1.1,1.3,68,0.38,,---,0.38,VWS V14.00,2013-06-18 19:26:00,
2013-06-18 15:31:00,65.7,55.6,29.85,NNW,338,0.0,0.0,70,0.38,,---,0.38,VWS V14.00,2013-06-18 19:31:00,
2013-06-18 15:36:00,65.7,55.6,29.85,SSW,202,1.1,1.1,70,0.33,,---,0.38,VWS V14.00,2013-06-18 19:36:00,
2013-06-18 15:41:00,65.8,56.2,29.85,NW,315,0.9,1.3,71,0.33,,---,0.38,VWS V14.00,2013-06-18 19:41:00,
2013-06-18 15:46:00,65.8,56.6,29.85,North,0,1.3,1.3,72,0.25,,---,0.38,VWS V14.00,2013-06-18 19:46:00,
2013-06-18 15:51:00,65.8,56.6,29.85,North,0,0.0,0.0,72,0.13,,---,0.38,VWS V14.00,2013-06-18 19:51:00,
2013-06-18 15:56:00,66.0,57.1,29.85,North,0,0.0,0.0,73,0.13,,---,0.42,VWS V14.00,2013-06-18 19:56:00,
2013-06-18 16:01:00,66.0,57.5,29.85,North,0,0.0,1.1,74,0.13,,---,0.42,VWS V14.00,2013-06-18 20:01:00,
2013-06-18 16:06:00,66.2,57.7,29.85,North,0,0.0,0.0,74,0.08,,---,0.42,VWS V14.00,2013-06-18 20:06:00,
2013-06-18 16:11:00,66.4,58.2,29.88,North,0,0.0,0.0,75,0.08,,---,0.42,VWS V14.00,2013-06-18 20:11:00,
2013-06-18 16:16:00,66.6,58.8,29.88,North,0,1.3,1.3,76,0.08,,---,0.42,VWS V14.00,2013-06-18 20:16:00,
2013-06-18 16:21:00,66.7,59.3,29.88,North,0,1.3,1.3,77,0.08,,---,0.46,VWS V14.00,2013-06-18 20:21:00,
2013-06-18 16:25:00,66.9,59.5,29.88,North,0,1.1,1.1,77,0.08,,---,0.46,VWS V14.00,2013-06-18 20:25:00,
2013-06-18 16:31:00,67.1,60.0,29.88,North,0,1.3,1.3,78,0.08,,---,0.46,VWS V14.00,2013-06-18 20:31:00,
2013-06-18 16:36:00,67.5,60.7,29.88,NW,315,1.3,2.2,79,0.08,,---,0.46,VWS V14.00,2013-06-18 20:36:00,
2013-06-18 16:41:00,67.6,60.9,29.88,WNW,292,1.1,1.1,79,0.12,,---,0.50,VWS V14.00,2013-06-18 20:41:00,
2013-06-18 16:46:00,67.8,61.4,29.88,North,0,1.1,1.3,80,0.16,,---,0.54,VWS V14.00,2013-06-18 20:46:00,
2013-06-18 16:51:00,67.8,61.4,29.88,North,0,0.9,1.6,80,0.16,,---,0.54,VWS V14.00,2013-06-18 20:51:00,
2013-06-18 16:56:00,68.0,61.6,29.91,NE,45,1.1,1.3,80,0.12,,---,0.54,VWS V14.00,2013-06-18 20:56:00,
2013-06-18 17:01:00,68.0,61.6,29.91,NE,45,0.0,0.0,80,0.17,,---,0.59,VWS V14.00,2013-06-18 21:01:00,
2013-06-18 17:06:00,68.0,61.6,29.91,NW,315,0.9,0.9,80,0.17,,---,0.59,VWS V14.00,2013-06-18 21:06:00,
2013-06-18 17:11:00,68.2,62.1,29.88,NE,45,0.0,0.0,81,0.20,,---,0.62,VWS V14.00,2013-06-18 21:11:00,
2013-06-18 17:16:00,68.2,62.1,29.88,SSW,202,1.1,1.1,81,0.20,,---,0.62,VWS V14.00,2013-06-18 21:16:00,
2013-06-18 17:21:00,68.2,62.1,29.88,SE,135,0.9,1.1,81,0.16,,---,0.62,VWS V14.00,2013-06-18 21:21:00,
2013-06-18 17:26:00,68.2,62.1,29.88,ESE,112,0.9,1.1,81,0.16,,---,0.62,VWS V14.00,2013-06-18 21:26:00,
2013-06-18 17:31:00,68.2,62.1,29.88,ESE,112,1.3,1.3,81,0.21,,---,0.67,VWS V14.00,2013-06-18 21:31:00,
2013-06-18 17:36:00,67.8,61.8,29.88,SSW,202,1.3,1.3,81,0.21,,---,0.67,VWS V14.00,2013-06-18 21:36:00,
2013-06-18 17:41:00,67.3,60.9,29.85,South,180,3.6,3.6,80,0.17,,---,0.67,VWS V14.00,2013-06-18 21:41:00,
2013-06-18 17:46:00,67.1,60.7,29.85,ENE,68,0.0,0.9,80,0.13,,---,0.67,VWS V14.00,2013-06-18 21:46:00,
2013-06-18 17:51:00,67.1,60.7,29.85,NW,315,1.1,1.1,80,0.13,,---,0.67,VWS V14.00,2013-06-18 21:51:00,
2013-06-18 17:56:00,66.7,60.4,29.85,SW,225,3.4,3.4,80,0.13,,---,0.67,VWS V14.00,2013-06-18 21:56:00,
2013-06-18 18:01:00,66.6,60.2,29.85,SW,225,2.0,2.0,80,0.12,,---,0.71,VWS V14.00,2013-06-18 22:01:00,
2013-06-18 18:06:00,66.4,60.0,29.85,NNW,338,1.6,1.6,80,0.12,,---,0.71,VWS V14.00,2013-06-18 22:06:00,
2013-06-18 18:11:00,66.2,59.9,29.91,North,0,1.1,1.6,80,0.09,,---,0.71,VWS V14.00,2013-06-18 22:11:00,
2013-06-18 18:16:00,66.0,60.0,29.91,ENE,68,1.3,2.9,81,0.09,,---,0.71,VWS V14.00,2013-06-18 22:16:00,
2013-06-18 18:21:00,66.0,60.0,29.91,NNW,338,0.0,0.0,81,0.09,,---,0.71,VWS V14.00,2013-06-18 22:21:00,
2013-06-18 18:25:00,65.8,59.8,29.91,North,0,0.0,0.0,81,0.13,,---,0.75,VWS V14.00,2013-06-18 22:25:00,
2013-06-18 18:30:00,65.7,59.7,29.91,NW,315,0.9,0.9,81,0.08,,---,0.75,VWS V14.00,2013-06-18 22:30:00,
2013-06-18 18:35:00,65.7,60.0,29.91,NNE,22,0.0,0.9,82,0.12,,---,0.79,VWS V14.00,2013-06-18 22:35:00,
2013-06-18 18:40:00,65.5,59.8,29.91,East,90,1.1,1.1,82,0.12,,---,0.79,VWS V14.00,2013-06-18 22:40:00,
2013-06-18 18:45:00,65.5,59.8,29.91,East,90,1.1,1.1,82,0.12,,---,0.79,VWS V14.00,2013-06-18 22:45:00,
2013-06-18 18:50:00,65.3,59.7,29.91,East,90,1.1,1.1,82,0.12,,---,0.79,VWS V14.00,2013-06-18 22:50:00,
2013-06-18 18:55:00,65.3,59.7,29.91,North,0,0.0,0.0,82,0.12,,---,0.79,VWS V14.00,2013-06-18 22:55:00,
2013-06-18 19:00:00,65.3,59.7,29.91,NNW,338,1.3,1.3,82,0.12,,---,0.83,VWS V14.00,2013-06-18 23:00:00,
2013-06-18 19:05:00,65.3,60.0,29.91,NNW,338,0.0,0.0,83,0.12,,---,0.83,VWS V14.00,2013-06-18 23:05:00,
2013-06-18 19:10:00,65.3,60.0,29.91,NW,315,0.0,2.0,83,0.12,,---,0.83,VWS V14.00,2013-06-18 23:10:00,
2013-06-18 19:15:00,65.1,59.8,29.91,NNW,338,0.0,0.0,83,0.12,,---,0.83,VWS V14.00,2013-06-18 23:15:00,
2013-06-18 19:20:00,64.9,59.7,29.91,North,0,0.0,0.0,83,0.12,,---,0.83,VWS V14.00,2013-06-18 23:20:00,
2013-06-18 19:25:00,64.8,59.1,29.88,NNE,22,0.0,0.0,82,0.08,,---,0.83,VWS V14.00,2013-06-18 23:25:00,
2013-06-18 19:30:00,64.6,59.0,29.88,North,0,1.3,2.0,82,0.08,,---,0.83,VWS V14.00,2013-06-18 23:30:00,
2013-06-18 19:35:00,64.8,59.5,29.88,NNW,338,1.3,1.3,83,0.04,,---,0.83,VWS V14.00,2013-06-18 23:35:00,
2013-06-18 19:40:00,64.8,59.5,29.88,NNW,338,2.0,2.0,83,0.09,,---,0.88,VWS V14.00,2013-06-18 23:40:00,
2013-06-18 19:45:00,64.8,59.8,29.88,NNW,338,1.1,1.1,84,0.09,,---,0.88,VWS V14.00,2013-06-18 23:45:00,
2013-06-18 19:50:00,64.8,59.8,29.88,NNW,338,0.0,0.0,84,0.09,,---,0.88,VWS V14.00,2013-06-18 23:50:00,
2013-06-18 19:55:00,64.6,59.6,29.91,NE,45,0.9,0.9,84,0.09,,---,0.88,VWS V14.00,2013-06-18 23:55:00,
2013-06-18 20:00:00,64.6,59.6,29.91,NE,45,0.0,0.0,84,0.05,,---,0.88,VWS V14.00,2013-06-19 00:00:00,
2013-06-18 20:05:00,64.6,59.6,29.91,NE,45,0.0,0.0,84,0.05,,---,0.88,VWS V14.00,2013-06-19 00:05:00,
2013-06-18 20:10:00,64.6,59.6,29.91,NE,45,0.0,0.0,84,0.05,,---,0.88,VWS V14.00,2013-06-19 00:10:00,
2013-06-18 20:15:00,64.6,59.6,29.91,NE,45,0.0,0.0,84,0.05,,---,0.88,VWS V14.00,2013-06-19 00:15:00,
2013-06-18 20:20:00,64.6,60.0,29.91,NE,45,0.0,0.0,85,0.05,,---,0.88,VWS V14.00,2013-06-19 00:20:00,
2013-06-18 20:25:00,64.6,60.0,29.88,North,0,0.9,0.9,85,0.05,,---,0.88,VWS V14.00,2013-06-19 00:25:00,
2013-06-18 20:30:00,64.6,60.0,29.88,NE,45,0.9,0.9,85,0.05,,---,0.88,VWS V14.00,2013-06-19 00:30:00,
2013-06-18 20:35:00,64.8,60.2,29.88,NNE,22,0.0,0.0,85,0.05,,---,0.88,VWS V14.00,2013-06-19 00:35:00,
2013-06-18 20:40:00,64.8,60.2,29.88,NNW,338,1.6,1.6,85,0.00,,---,0.88,VWS V14.00,2013-06-19 00:40:00,
2013-06-18 20:45:00,64.6,60.0,29.88,North,0,0.0,0.0,85,0.00,,---,0.88,VWS V14.00,2013-06-19 00:45:00,
2013-06-18 20:50:00,64.6,60.0,29.88,NNE,22,1.3,1.6,85,0.00,,---,0.88,VWS V14.00,2013-06-19 00:50:00,
2013-06-18 20:55:00,64.6,60.0,29.91,NNE,22,0.0,0.0,85,0.00,,---,0.88,VWS V14.00,2013-06-19 00:55:00,
2013-06-18 21:00:00,64.6,60.3,29.91,NNW,338,0.0,0.0,86,0.00,,---,0.88,VWS V14.00,2013-06-19 01:00:00,
2013-06-18 21:05:00,64.6,60.3,29.91,North,0,0.0,1.1,86,0.00,,---,0.88,VWS V14.00,2013-06-19 01:05:00,
2013-06-18 21:10:00,64.4,59.8,29.91,NE,45,0.0,1.1,85,0.00,,---,0.88,VWS V14.00,2013-06-19 01:10:00,
2013-06-18 21:15:00,64.4,60.1,29.91,North,0,0.0,0.9,86,0.00,,---,0.88,VWS V14.00,2013-06-19 01:15:00,
2013-06-18 21:20:00,64.4,60.1,29.91,North,0,0.0,0.0,86,0.00,,---,0.88,VWS V14.00,2013-06-19 01:20:00,
2013-06-18 21:25:00,64.4,60.1,29.91,North,0,0.0,0.0,86,0.00,,---,0.88,VWS V14.00,2013-06-19 01:25:00,
2013-06-18 21:30:00,64.4,60.1,29.91,NNE,22,0.0,0.0,86,0.00,,---,0.88,VWS V14.00,2013-06-19 01:30:00,
2013-06-18 21:35:00,64.4,60.1,29.91,North,0,0.0,0.0,86,0.00,,---,0.88,VWS V14.00,2013-06-19 01:35:00,
2013-06-18 21:40:00,64.4,60.1,29.91,NNE,22,0.0,0.0,86,0.00,,---,0.88,VWS V14.00,2013-06-19 01:40:00,
2013-06-18 21:45:00,64.4,60.5,29.91,NNW,338,1.1,1.1,87,0.00,,---,0.88,VWS V14.00,2013-06-19 01:45:00,
2013-06-18 21:50:00,64.4,60.5,29.91,North,0,0.0,0.0,87,0.00,,---,0.88,VWS V14.00,2013-06-19 01:50:00,
2013-06-18 21:55:00,64.6,60.6,29.91,NE,45,1.3,1.3,87,0.00,,---,0.88,VWS V14.00,2013-06-19 01:55:00,
2013-06-18 22:00:00,64.6,60.6,29.91,NE,45,1.3,1.3,87,0.00,,---,0.88,VWS V14.00,2013-06-19 02:00:00,
2013-06-18 22:05:00,64.6,60.6,29.91,NE,45,1.3,1.3,87,0.00,,---,0.88,VWS V14.00,2013-06-19 02:05:00,
2013-06-18 22:10:00,64.6,60.6,29.91,NE,45,1.1,1.1,87,0.00,,---,0.88,VWS V14.00,2013-06-19 02:10:00,
2013-06-18 22:15:00,64.6,60.6,29.91,NE,45,0.0,0.0,87,0.00,,---,0.88,VWS V14.00,2013-06-19 02:15:00,
2013-06-18 22:20:00,64.6,60.6,29.91,North,0,0.0,0.0,87,0.00,,---,0.88,VWS V14.00,2013-06-19 02:20:00,
2013-06-18 22:25:00,64.4,60.5,29.91,North,0,0.0,0.0,87,0.00,,---,0.88,VWS V14.00,2013-06-19 02:25:00,
2013-06-18 22:30:00,64.4,60.5,29.91,NE,45,0.9,0.9,87,0.00,,---,0.88,VWS V14.00,2013-06-19 02:30:00,
2013-06-18 22:35:00,64.2,60.3,29.91,NE,45,0.9,0.9,87,0.00,,---,0.88,VWS V14.00,2013-06-19 02:35:00,
2013-06-18 22:40:00,64.0,60.1,29.91,NE,45,0.0,0.0,87,0.00,,---,0.88,VWS V14.00,2013-06-19 02:40:00,
2013-06-18 22:45:00,64.0,59.8,29.91,North,0,0.0,0.0,86,0.00,,---,0.88,VWS V14.00,2013-06-19 02:45:00,
2013-06-18 22:50:00,63.9,59.6,29.91,North,0,0.0,0.0,86,0.00,,---,0.88,VWS V14.00,2013-06-19 02:50:00,
2013-06-18 22:55:00,63.7,59.4,29.91,North,0,0.0,0.0,86,0.00,,---,0.88,VWS V14.00,2013-06-19 02:55:00,
2013-06-18 23:00:00,63.5,59.2,29.91,North,0,0.0,0.0,86,0.00,,---,0.88,VWS V14.00,2013-06-19 03:00:00,
2013-06-18 23:05:00,63.5,59.2,29.91,North,0,0.0,0.0,86,0.00,,---,0.88,VWS V14.00,2013-06-19 03:05:00,
2013-06-18 23:10:00,63.3,59.1,29.91,NNE,22,0.0,0.0,86,0.00,,---,0.88,VWS V14.00,2013-06-19 03:10:00,
2013-06-18 23:15:00,63.3,59.1,29.91,North,0,1.1,1.1,86,0.00,,---,0.88,VWS V14.00,2013-06-19 03:15:00,
2013-06-18 23:20:00,63.3,59.4,29.91,North,0,0.0,0.0,87,0.00,,---,0.88,VWS V14.00,2013-06-19 03:20:00,
2013-06-18 23:25:00,63.1,59.2,29.91,NNW,338,0.0,0.0,87,0.00,,---,0.88,VWS V14.00,2013-06-19 03:25:00,
2013-06-18 23:30:00,63.1,59.2,29.91,North,0,0.0,0.0,87,0.00,,---,0.88,VWS V14.00,2013-06-19 03:30:00,
2013-06-18 23:35:00,63.1,59.2,29.91,North,0,0.0,1.3,87,0.00,,---,0.88,VWS V14.00,2013-06-19 03:35:00,
2013-06-18 23:40:00,63.1,59.2,29.91,NNE,22,0.9,0.9,87,0.00,,---,0.00,VWS V14.00,2013-06-19 03:40:00,
2013-06-18 23:45:00,63.0,59.0,29.91,NNE,22,2.2,2.2,87,0.00,,---,0.00,VWS V14.00,2013-06-19 03:45:00,
2013-06-18 23:50:00,63.0,59.0,29.91,NNE,22,1.1,1.3,87,0.00,,---,0.00,VWS V14.00,2013-06-19 03:50:00,
2013-06-18 23:55:00,63.0,59.0,29.94,North,0,0.0,0.0,87,0.00,,---,0.00,VWS V14.00,2013-06-19 03:55:00,